Regional Weather Roundup
Issued by NWS Sioux Falls, SD

Home | Current Version | Previous Version | Graphics & Text | Print | Product List | Glossary On
Versions: 1 2 3 4 5 6 7 8 9 10 11 12 13 14 15 16 17 18 19 20 21 22 23 24 25 26 27 28 29 30 31 32 33 34 35 36 37 38 39 40 41 42 43 44 45 46 47 48 49 50
000
ASUS43 KFSD 272310
RWRFSD

WEATHER ROUNDUP FOR SE SOUTH DAKOTA/SW MINNESOTA/NW IOWA
NATIONAL WEATHER SERVICE SIOUX FALLS SD
600 PM CDT WED JUL 27 2016

NOTE: "FAIR" INDICATES FEW OR NO CLOUDS BELOW 12,000 FEET WITH NO
SIGNIFICANT WEATHER AND OR OBSTRUCTIONS TO VISIBILITY.


SDZ038>040-050-052>070-280000-
SOUTHEAST SOUTH DAKOTA

CITY           SKY/WX    TMP DP  RH WIND       PRES   REMARKS
BROOKINGS      SUNNY     78  64  61 N13       30.01S
CHAMBERLAIN    CLOUDY    83  63  50 NE6       30.03F
HURON          MOSUNNY   83  62  49 N15       30.00R
MADISON        FAIR      77  66  69 NE12      30.02S
MITCHELL       CLOUDY    83  64  52 NE10      30.00R
SIOUX FALLS    MOSUNNY   81  64  56 N12       29.98F
WINNER         LGT RAIN  77  66  68 E9        30.01F
YANKTON        SUNNY     86  61  42 W7        29.94S
$$

MNZ071-072-080-081-089-090-097-098-280000-
SOUTHWEST MINNESOTA

CITY           SKY/WX    TMP DP  RH WIND       PRES   REMARKS
FAIRMONT       SUNNY     81  64  57 NW14      29.94S
JACKSON        MOSUNNY   81  64  57 NW10G16   29.97F
LUVERNE        MOSUNNY   81  61  50 N7        29.99S
MARSHALL       MOSUNNY   79  66  64 N16       29.98S
MONTEVIDEO     MOSUNNY   79  64  61 NE15      29.99F
PIPESTONE      MOSUNNY   81  63  54 NE10      30.00F
REDWOOD FALLS  MOSUNNY   82  65  56 N9        29.95F
TRACY          SUNNY     80  68  67 N10G20    29.98F
WINDOM         MOSUNNY   79  64  61 NW10      29.97F
WORTHINGTON    MOSUNNY   79  66  64 N13       29.99F
$$

IAZ001>003-012>014-020>022-031-032-NEZ013-014-SDZ071-280000-
NORTHWEST IOWA

CITY           SKY/WX    TMP DP  RH WIND       PRES   REMARKS
CHEROKEE       SUNNY     84  69  60 NW8       29.94F
DENISON        SUNNY     81  68  65 CALM      29.92F
ESTHERVILLE    MOSUNNY   80  68  66 N10       29.94F
LE MARS        SUNNY     86  66  51 NW7       29.95F
SHELDON        MOSUNNY   82  70  65 N9        29.95F
SIOUX CITY     PTSUNNY   89  65  44 N3        29.94F
SPENCER        PTSUNNY   82  69  64 N12       29.95F
STORM LAKE     PTSUNNY   81  70  69 SW6       29.95F
$$

ABBREVIATIONS USED IN REMARKS
   TC - TEMPERATURE IN CELSIUS
  WCI - WIND CHILL INDEX
   HX - HEAT INDEX
  VSB - VISIBILITY





USA.gov is the U.S. government's official web portal to all federal, state and local government web resources and services.